星链-30192 (STARLINK-30192 )

导读

STARLINK-30192是美国SpaceX星链星座中的一颗卫星,于2023年7月20日发射升空,属于星链项目低轨互联网卫星组网的组成部分。星链系统旨在为全球提供高速宽带互联网服务,该卫星承担着全球偏远地区网络覆盖、补充空间通信网络等任务,运行于近地轨道,是Starlink大规模星座部署进程中的单元卫星。

基本信息
目录编号:
57405
目录名称:
STARLINK-30192
国际标识:
2023-102B
轨道中心:
EARTH
卫星名称:
星链-30192
卫星全名:
星链-30192 (STARLINK-30192 )
卫星状态:
已陨落 最后检测时间 2026-01-27
发射日期:
2023-07-20 UTC
国别 :
美国 (US)
星等 :
--
该卫星已列入 空间交会检测服务 Space Conjunction Data Service (SCDS) ,当前飞行风险评估等级: 无高风险
轨道信息
数据来源 国际轨道数据
星历时间: 2026-01-26T20:26:26+0800
轨道信息已过期228天
半长轴: 6620.376km
偏心率: 0.0009798
轨道倾角: 42.988°
近地点辐角 80.908°
升交点赤经 69.234°
平近点角 279.291°
近地点: 235.752km
远地点: 248.726km
周期: 89.348分钟
每日圈数: 16.116802
详细信息
固有亮度:
5
最大亮度:
0.3
卫星平台:
Starlink v2.0 mini
覆盖范围:
全球
运营商:
太空探索技术公司
运营商所在国:
美国
制造商(研发单位):
太空探索技术公司
制造商所在国:
美国
使用方式:
暂无
卫星简介
星链(Starlink)计划是由太空探索技术公司(SpaceX)提出的一个巨型低轨卫星互联网星座项目,计划在2019年至2024年间在太空搭建由约1.2万颗卫星组成的“星链”网络,其中1584颗将部署在地球上空550千米处的近地轨道,并从2020年开始工作。该卫星仍在工作。
与全量物体交会距离演化趋势
与全量物体交会风险概率演化趋势